Location: Altamira
(10.5079°N, 66.8544°W)
Time: 16:11:42
(UTC+00:00)

COSMO-SKYMED 1 - Pass Details

Date: 13 December 2025
Orbit: 578 x 580 km, 97.9° (Epoch: 14 January)

Event Time Altitude Azimuth Distance (km) Brightness Sun altitude
Rises 22:54:05 0° 358° (N) 2,781 5.7 -11.4°
Reaches altitude 10° 22:56:21 10° 350° (N) 1,883 4.9 -11.9°
Maximum altitude 23:00:06 36° 283° (WNW) 912 4.0 -12.8°
Drops below altitude 10° 23:03:52 10° 216° (SW) 1,884 5.9 -13.7°
Sets 23:06:08 0° 207° (SSW) 2,782 6.7 -14.2°
